Location: Rioux
(40.7500°S, 175.7500°E)
Time: 10:08:43
(UTC+00:00)

Cosmos 1818 - Pass Details

Date: 12 June 2024
Orbit: 770 x 802 km, 65.0° (Epoch: 20 July)

Event Time Altitude Azimuth Distance (km) Brightness Sun altitude
Rises 18:37:17 0° 311° (NW) 3,269 6.5 -11.3°
Reaches altitude 10° 18:39:48 10° 304° (NW) 2,343 5.7 -10.9°
Maximum altitude 18:44:56 45° 232° (SW) 1,070 3.8 -10.0°
Drops below altitude 10° 18:50:06 10° 159° (SSE) 2,350 6.0 -9.1°
Sets 18:52:38 0° 152° (SSE) 3,281 6.8 -8.6°
